Temp
-10 -10 -11 -11 -11 -11 -11 -12 -12 -12 -12 -12 -13 -13 -12 -12 -12 -12 -13 -13 -12 -13 -12 -12 -12 -12 -12 -12 -12 -12 -12 -12 -11 -12 -12 -12 -12 -12 -12 -12 -12 -12 -11 -11 -11
-10 -10 -10 -10 -11 -11 -12 -12 -12 -12 -12 -12 -12 -13 -13 -13 -13 -13 -13 -13 -13 -13 -13 -13 -12 -12 -12 -12 -12 -12 -12 -12 -12 -12 -12 -12 -12 -12 -12 -12 -12 -12 -12 -12 -12
-10 -10 -10 -10 -11 -11 -11 -11 -12 -12 -12 -12 -12 -13 -13 -13 -13 -13 -13 -13 -13 -13 -13 -13 -13 -13 -13 -12 -12 -13 -13 -13 -13 -13 -13 -13 -13 -13 -13 -13 -13 -13 -13 -13 -13
-11 -11 -11 -11 -11 -11 -11 -11 -12 -12 -13 -13 -13 -13 -13 -13 -13 -13 -13 -14 -14 -14 -13 -13 -13 -13 -13 -13 -13 -13 -13 -13 -13 -13 -13 -13 -13 -13 -13 -13 -13 -13 -13 -13 -13
-11 -11 -11 -11 -11 -11 -11 -11 -12 -12 -13 -13 -13 -13 -13 -13 -13 -13 -13 -14 -14 -14 -14 -14 -14 -13 -13 -14 -14 -13 -13 -13 -14 -13 -13 -13 -14 -13 -13 -13 -13 -13 -13 -13 -13
-11 -12 -12 -12 -11 -11 -12 -12 -12 -12 -12 -13 -13 -13 -14 -14 -14 -14 -14 -14 -14 -14 -14 -14 -14 -14 -14 -14 -14 -14 -14 -14 -14 -14 -14 -14 -14 -14 -14 -14 -14 -14 -14 -14 -13
-11 -11 -12 -11 -11 -11 -11 -12 -12 -12 -12 -12 -13 -14 -14 -14 -14 -15 -15 -15 -15 -15 -15 -15 -14 -14 -14 -14 -14 -14 -14 -14 -14 -14 -14 -14 -14 -14 -14 -14 -14 -14 -14 -14 -14
-11 -11 -11 -11 -11 -12 -12 -12 -12 -12 -12 -13 -14 -15 -15 -15 -15 -15 -16 -16 -15 -15 -15 -15 -15 -15 -15 -15 -14 -14 -14 -14 -14 -14 -14 -15 -14 -14 -14 -14 -14 -14 -14 -14 -14
-11 -11 -11 -11 -11 -11 -11 -11 -11 -12 -12 -13 -14 -15 -15 -16 -16 -16 -16 -16 -16 -16 -15 -15 -15 -15 -15 -15 -15 -15 -14 -14 -15 -15 -15 -15 -15 -15 -15 -14 -14 -14 -14 -14 -14
-11 -11 -11 -11 -11 -11 -11 -11 -12 -12 -12 -13 -15 -15 -16 -17 -17 -17 -16 -16 -16 -16 -16 -16 -16 -15 -15 -15 -15 -15 -15 -15 -15 -15 -15 -15 -15 -15 -15 -15 -15 -15 -14 -14 -14
-12 -11 -11 -11 -11 -11 -11 -12 -12 -12 -13 -14 -15 -15 -16 -17 -17 -17 -17 -17 -16 -16 -16 -16 -16 -16 -16 -15 -15 -15 -15 -15 -15 -15 -15 -15 -15 -15 -15 -15 -15 -15 -15 -15 -14
-12 -12 -12 -11 -12 -12 -12 -12 -12 -12 -14 -15 -15 -16 -16 -18 -17 -17 -17 -17 -17 -16 -16 -16 -16 -16 -16 -16 -15 -15 -15 -15 -15 -15 -15 -15 -16 -15 -15 -15 -15 -15 -15 -15 -15
-12 -12 -12 -12 -12 -12 -12 -13 -13 -13 -14 -15 -16 -16 -17 -18 -18 -17 -17 -17 -17 -17 -17 -16 -16 -16 -16 -16 -16 -16 -15 -15 -15 -15 -15 -15 -16 -16 -16 -15 -15 -15 -15 -15 -15
-12 -12 -12 -13 -12 -12 -13 -13 -13 -14 -14 -15 -15 -16 -17 -17 -18 -18 -18 -17 -17 -17 -17 -17 -16 -16 -16 -16 -16 -16 -16 -16 -15 -15 -15 -16 -16 -16 -16 -16 -16 -16 -16 -16 -16
-12 -12 -12 -12 -13 -13 -13 -13 -14 -14 -15 -15 -16 -16 -17 -17 -17 -19 -18 -17 -17 -17 -17 -17 -17 -16 -16 -16 -16 -16 -16 -16 -16 -15 -16 -16 -16 -16 -17 -16 -16 -16 -16 -16 -16
-13 -13 -12 -13 -13 -13 -13 -14 -14 -14 -15 -16 -16 -16 -17 -17 -18 -19 -18 -18 -17 -17 -17 -17 -17 -17 -16 -16 -16 -16 -16 -16 -16 -16 -16 -16 -16 -17 -16 -17 -16 -16 -16 -16 -16
-14 -13 -13 -13 -13 -13 -13 -14 -14 -15 -15 -15 -16 -16 -17 -19 -19 -19 -19 -18 -18 -17 -17 -17 -17 -17 -16 -16 -16 -16 -16 -16 -16 -16 -16 -16 -16 -17 -17 -17 -17 -16 -17 -16 -16
-14 -14 -13 -13 -13 -14 -14 -14 -15 -15 -16 -16 -16 -17 -16 -18 -19 -19 -19 -19 -18 -18 -18 -17 -17 -17 -16 -16 -16 -17 -17 -17 -17 -17 -17 -17 -17 -17 -17 -17 -17 -17 -17 -17 -17
-14 -14 -14 -14 -14 -14 -15 -15 -15 -16 -16 -16 -16 -16 -17 -18 -19 -19 -19 -19 -19 -18 -18 -18 -18 -17 -17 -17 -17 -17 -17 -18 -17 -17 -17 -17 -17 -17 -17 -17 -17 -18 -17 -17 -17
-14 -14 -14 -14 -14 -14 -15 -15 -15 -16 -16 -16 -16 -16 -18 -18 -20 -20 -20 -20 -20 -20 -20 -19 -18 -18 -18 -18 -18 -18 -18 -18 -18 -18 -17 -17 -17 -18 -18 -18 -18 -18 -17 -17 -17
-15 -15 -14 -14 -14 -15 -15 -16 -16 -16 -16 -17 -17 -17 -17 -18 -20 -21 -20 -21 -20 -20 -20 -20 -19 -19 -19 -19 -19 -19 -19 -19 -19 -18 -18 -18 -18 -19 -18 -18 -19 -17 -18 -18 -18
-15 -15 -15 -15 -15 -15 -16 -16 -17 -17 -17 -17 -17 -17 -18 -19 -20 -21 -21 -21 -21 -21 -20 -20 -21 -20 -20 -19 -19 -19 -19 -19 -19 -19 -18 -18 -17 -19 -19 -19 -19 -18 -18 -18 -17
-16 -15 -15 -15 -15 -16 -16 -17 -17 -17 -17 -17 -17 -17 -18 -19 -19 -21 -21 -21 -21 -21 -21 -21 -21 -21 -21 -20 -20 -20 -20 -20 -19 -19 -19 -18 -19 -19 -19 -19 -18 -18 -18 -18 -17
-16 -16 -16 -16 -16 -17 -17 -17 -17 -18 -17 -17 -17 -18 -18 -19 -20 -20 -21 -21 -21 -21 -21 -21 -21 -21 -21 -20 -20 -20 -20 -20 -20 -19 -19 -19 -19 -19 -19 -18 -18 -18 -18 -17 -18
-17 -16 -17 -17 -17 -17 -18 -18 -18 -18 -18 -18 -18 -18 -18 -19 -19 -20 -21 -21 -21 -21 -21 -21 -21 -21 -21 -21 -21 -20 -20 -20 -20 -19 -19 -19 -19 -19 -19 -18 -18 -18 -17 -18 -18
-17 -17 -18 -18 -18 -18 -18 -18 -18 -18 -18 -19 -19 -19 -19 -19 -19 -20 -21 -21 -21 -21 -21 -21 -21 -21 -20 -21 -21 -20 -20 -21 -20 -20 -19 -18 -18 -20 -18 -18 -18 -17 -17 -17 -17
-18 -18 -19 -18 -18 -19 -19 -19 -19 -19 -19 -19 -19 -19 -19 -19 -20 -20 -21 -21 -21 -22 -22 -22 -21 -21 -21 -21 -21 -20 -21 -21 -21 -20 -19 -19 -20 -18 -18 -18 -18 -17 -17 -17 -17
Height
5819 5815 5812 5809 5805 5802 5799 5798 5796 5794 5792 5790 5789 5788 5786 5785 5783 5782 5782 5782 5781 5780 5779 5779 5778 5778 5778 5778 5778 5778 5778 5777 5777 5776 5776 5776 5777 5777 5778 5778 5778 5778 5778 5779 5780
5818 5815 5810 5807 5804 5802 5798 5796 5793 5791 5788 5785 5784 5783 5783 5782 5781 5779 5778 5778 5778 5777 5776 5776 5775 5775 5775 5775 5775 5774 5773 5773 5772 5772 5772 5772 5772 5773 5773 5773 5774 5774 5774 5775 5775
5815 5810 5808 5805 5802 5797 5795 5792 5789 5785 5783 5782 5780 5778 5777 5776 5776 5776 5774 5773 5773 5773 5772 5772 5772 5772 5772 5771 5771 5770 5770 5770 5770 5770 5770 5771 5771 5771 5771 5771 5772 5772 5771 5772 5772
5809 5806 5803 5799 5797 5793 5790 5788 5785 5781 5778 5777 5775 5773 5772 5770 5771 5769 5769 5769 5768 5768 5769 5768 5768 5768 5768 5768 5768 5768 5767 5768 5768 5768 5768 5768 5768 5768 5768 5768 5768 5768 5768 5768 5768
5806 5802 5799 5795 5794 5790 5786 5780 5778 5775 5772 5771 5770 5768 5765 5764 5765 5763 5762 5762 5763 5763 5764 5763 5763 5763 5764 5764 5764 5765 5765 5765 5765 5765 5765 5765 5765 5765 5764 5764 5765 5764 5764 5764 5763
5801 5796 5796 5792 5789 5784 5778 5772 5770 5768 5767 5764 5760 5759 5759 5758 5757 5756 5756 5756 5756 5757 5758 5759 5759 5759 5760 5760 5761 5761 5761 5762 5761 5761 5762 5762 5762 5761 5761 5759 5760 5760 5760 5760 5759
5798 5794 5791 5786 5781 5777 5773 5769 5766 5762 5758 5753 5750 5749 5748 5750 5750 5749 5749 5750 5749 5751 5752 5753 5754 5754 5755 5756 5756 5757 5758 5758 5758 5758 5758 5757 5757 5758 5757 5755 5755 5755 5755 5754 5754
5792 5788 5784 5779 5775 5773 5766 5761 5754 5752 5746 5741 5738 5738 5738 5739 5739 5740 5741 5743 5744 5744 5746 5747 5749 5749 5750 5751 5752 5752 5753 5754 5754 5754 5754 5754 5751 5751 5753 5752 5751 5750 5749 5749 5748
5785 5781 5777 5772 5767 5763 5758 5752 5745 5742 5736 5731 5728 5727 5727 5729 5730 5731 5734 5736 5738 5739 5739 5741 5743 5745 5746 5746 5747 5748 5749 5749 5750 5750 5750 5750 5747 5746 5748 5747 5746 5745 5744 5742 5741
5778 5774 5769 5764 5759 5754 5749 5743 5738 5732 5728 5721 5718 5718 5716 5719 5720 5724 5727 5729 5731 5733 5735 5735 5737 5739 5741 5741 5742 5743 5743 5744 5744 5747 5745 5745 5745 5741 5742 5742 5741 5739 5737 5736 5734
5770 5767 5761 5756 5751 5747 5741 5735 5731 5726 5718 5713 5709 5708 5705 5708 5712 5715 5719 5722 5724 5726 5728 5729 5730 5734 5735 5736 5736 5737 5738 5739 5739 5739 5740 5740 5741 5738 5737 5736 5734 5732 5730 5728 5727
5763 5759 5754 5749 5745 5738 5733 5726 5721 5717 5712 5706 5704 5701 5698 5699 5702 5706 5711 5714 5717 5719 5721 5723 5724 5727 5729 5730 5730 5731 5732 5732 5733 5733 5734 5734 5735 5733 5731 5729 5727 5725 5723 5721 5719
5756 5752 5747 5742 5737 5732 5726 5720 5714 5708 5704 5703 5697 5694 5693 5691 5692 5698 5701 5705 5709 5711 5714 5715 5717 5720 5721 5723 5723 5724 5725 5726 5726 5727 5727 5727 5727 5727 5724 5721 5719 5718 5716 5714 5712
5749 5745 5740 5735 5731 5724 5717 5710 5703 5699 5697 5697 5693 5689 5685 5683 5683 5687 5692 5697 5700 5703 5706 5707 5711 5712 5714 5715 5717 5717 5719 5719 5719 5719 5719 5721 5720 5717 5717 5714 5711 5709 5707 5705 5704
5741 5737 5731 5726 5722 5716 5710 5703 5696 5692 5688 5687 5683 5680 5677 5676 5676 5678 5683 5688 5690 5694 5699 5699 5703 5705 5706 5707 5709 5711 5712 5712 5712 5712 5711 5713 5712 5710 5708 5705 5703 5700 5697 5695 5695
5732 5729 5725 5720 5714 5708 5700 5695 5690 5687 5682 5680 5677 5673 5669 5668 5668 5670 5675 5679 5682 5685 5688 5690 5693 5696 5697 5700 5701 5703 5704 5704 5704 5705 5704 5705 5705 5705 5698 5697 5694 5691 5687 5687 5686
5723 5720 5715 5712 5707 5701 5694 5689 5686 5680 5676 5673 5669 5666 5663 5663 5663 5664 5668 5671 5673 5677 5679 5681 5684 5687 5689 5691 5693 5695 5696 5696 5697 5696 5696 5695 5695 5698 5692 5688 5684 5680 5679 5678 5676
5713 5710 5707 5703 5697 5691 5686 5682 5678 5673 5670 5665 5661 5658 5657 5656 5656 5658 5660 5662 5664 5666 5669 5672 5675 5677 5680 5682 5685 5686 5687 5688 5687 5688 5687 5686 5686 5684 5681 5679 5675 5673 5672 5670 5668
5703 5699 5697 5692 5688 5682 5679 5675 5671 5667 5664 5660 5656 5652 5651 5650 5649 5650 5653 5655 5657 5659 5662 5664 5665 5668 5671 5673 5676 5678 5679 5681 5679 5679 5677 5678 5677 5677 5672 5670 5667 5664 5663 5661 5659
5692 5689 5687 5683 5677 5674 5670 5666 5661 5659 5656 5653 5651 5647 5644 5644 5644 5643 5643 5646 5648 5649 5652 5654 5657 5659 5662 5665 5668 5670 5673 5673 5672 5671 5669 5669 5666 5663 5664 5662 5658 5657 5656 5653 5651
5682 5679 5677 5672 5669 5666 5662 5659 5654 5651 5649 5647 5644 5641 5638 5636 5635 5636 5635 5638 5641 5643 5644 5646 5650 5654 5655 5658 5660 5662 5663 5664 5663 5664 5662 5660 5661 5653 5654 5653 5647 5649 5647 5645 5644
5670 5669 5665 5661 5661 5656 5654 5650 5647 5643 5641 5639 5637 5635 5633 5631 5629 5627 5628 5630 5634 5637 5638 5640 5642 5645 5647 5651 5650 5652 5654 5655 5654 5654 5653 5654 5652 5647 5647 5644 5639 5641 5639 5638 5636
5658 5657 5654 5652 5649 5646 5643 5643 5639 5636 5633 5632 5628 5626 5626 5624 5621 5620 5620 5623 5625 5629 5631 5634 5633 5635 5637 5641 5641 5643 5646 5646 5645 5644 5644 5643 5642 5637 5637 5632 5633 5633 5633 5630 5627
5646 5645 5642 5640 5637 5635 5634 5632 5630 5627 5625 5623 5622 5619 5618 5617 5614 5611 5613 5615 5616 5619 5622 5623 5623 5626 5628 5627 5631 5634 5635 5635 5634 5634 5637 5632 5632 5630 5627 5621 5627 5626 5625 5623 5620
5636 5633 5630 5629 5627 5625 5623 5622 5621 5620 5617 5615 5613 5611 5610 5610 5608 5606 5605 5605 5607 5608 5610 5612 5613 5617 5618 5619 5619 5621 5621 5622 5625 5627 5624 5624 5621 5625 5616 5618 5619 5619 5618 5616 5613
5623 5620 5619 5619 5617 5617 5616 5615 5612 5611 5609 5607 5605 5602 5600 5600 5600 5598 5597 5596 5597 5598 5599 5600 5602 5604 5605 5608 5607 5607 5609 5613 5617 5616 5611 5611 5614 5610 5608 5611 5611 5611 5610 5608 5605
5610 5610 5607 5608 5606 5606 5607 5603 5601 5599 5598 5598 5596 5594 5592 5592 5591 5590 5588 5588 5587 5588 5589 5589 5590 5592 5593 5596 5596 5596 5600 5607 5606 5605 5603 5603 5603 5601 5604 5604 5604 5605 5603 5601 5599
Wind_Speed
30 33 30 28 28 28 27 25 23 23 24 23 23 22 22 24 21 19 20 21 21 19 17 17 14 13 13 13 14 16 17 19 19 20 19 19 20 20 19 20 21 21 22 22 23
35 38 35 34 30 30 32 30 26 24 24 24 25 24 23 24 25 22 22 22 21 20 18 16 16 15 14 14 15 15 16 16 15 15 14 15 14 15 15 16 17 18 18 20 21
38 37 36 34 30 32 34 34 31 28 26 25 25 26 27 26 26 25 23 22 21 21 18 17 17 16 15 14 13 11 11 9 8 7 7 7 8 10 10 11 11 11 13 13 14
37 37 35 31 32 36 41 42 37 32 27 27 26 27 27 27 26 25 25 24 23 21 21 19 19 17 16 14 12 11 10 10 8 8 9 10 11 11 12 13 11 10 11 11 12
41 41 36 38 38 40 42 41 40 38 35 33 31 30 29 30 28 29 28 26 26 22 22 21 21 19 17 15 14 13 12 11 10 10 10 11 12 12 13 14 12 13 14 14 13
40 36 35 38 42 42 43 44 41 40 38 37 34 33 34 33 31 31 31 28 26 24 22 23 22 21 19 17 16 15 13 12 11 12 13 14 15 14 14 16 14 15 15 15 17
40 38 34 37 38 42 45 44 43 46 47 40 40 39 37 35 34 34 33 30 28 26 24 24 24 22 21 19 18 16 15 14 13 13 15 17 18 16 15 18 17 18 20 20 22
39 39 39 43 44 45 48 48 48 47 44 43 41 41 41 38 38 36 35 32 28 26 25 24 23 21 21 19 18 18 16 16 15 16 16 18 22 20 17 19 22 24 25 25 25
44 42 43 47 46 44 49 51 49 48 44 40 38 44 43 42 39 37 36 33 30 27 25 24 24 23 23 21 20 19 18 19 18 18 19 18 22 23 21 23 25 26 25 26 28
43 45 46 49 48 48 46 50 49 49 43 39 36 42 46 43 39 37 37 35 32 29 28 24 24 26 24 25 23 21 21 22 22 20 20 21 20 27 25 26 29 29 30 30 32
41 41 45 49 49 50 46 47 49 48 42 34 24 28 42 44 42 38 36 37 35 32 30 28 26 27 32 27 26 25 24 25 24 23 23 23 22 26 26 28 30 32 33 33 35
46 48 48 49 49 48 45 45 49 46 36 30 28 27 32 38 41 38 37 37 36 34 32 31 28 29 30 30 29 29 29 28 28 27 27 25 23 25 28 29 32 34 34 35 36
43 47 49 49 50 49 48 48 46 47 40 25 31 29 26 31 35 39 38 38 37 36 34 33 31 29 30 31 33 33 33 32 31 29 29 27 26 25 28 30 32 33 35 36 37
43 48 49 51 50 49 46 46 43 41 39 31 30 30 28 28 34 40 41 39 39 36 36 37 32 31 31 31 32 33 31 31 31 31 32 27 29 29 28 29 33 35 36 36 37
46 50 49 51 53 47 47 46 42 38 39 32 28 27 25 24 28 34 40 41 40 38 39 40 36 35 35 35 34 33 33 33 33 33 34 31 32 31 29 32 35 38 40 40 39
47 47 48 51 52 49 46 44 44 37 38 32 29 27 24 23 25 29 33 35 40 39 40 44 41 39 38 36 37 36 35 35 36 36 38 34 33 31 37 36 38 41 41 39 37
50 47 50 51 54 51 45 44 42 36 37 32 30 27 24 23 20 25 36 31 32 39 37 37 40 40 40 40 38 37 38 38 39 38 39 38 38 32 38 42 44 44 40 36 36
49 48 51 54 54 51 44 42 41 40 34 30 30 27 27 26 29 30 27 35 41 38 41 45 38 38 39 39 39 39 38 38 39 40 40 41 40 42 43 43 44 43 39 36 36
50 50 50 49 53 48 43 40 41 37 36 30 30 30 27 28 31 30 32 41 41 43 46 45 41 38 36 36 36 35 35 35 38 41 43 44 44 42 45 43 42 40 32 32 34
51 51 48 51 50 45 40 39 41 37 35 30 30 31 27 26 28 31 32 33 32 30 31 32 32 33 32 33 34 34 33 35 37 40 45 45 48 49 45 42 43 33 33 33 33
52 50 50 48 48 44 39 38 38 37 35 30 29 31 30 28 29 30 29 29 29 29 33 35 31 32 31 31 32 34 34 35 38 41 45 49 47 50 46 41 43 34 31 31 33
49 47 48 46 45 43 37 36 36 35 33 30 28 29 31 29 29 31 30 31 29 31 30 32 37 34 34 32 36 37 37 36 41 44 48 49 47 45 42 41 41 32 29 29 31
44 46 45 47 47 43 39 39 36 35 33 30 28 28 31 30 31 29 35 32 40 35 34 32 36 37 39 40 42 42 37 39 44 50 49 47 45 46 43 42 33 27 27 29 29
42 42 43 44 43 40 37 37 36 34 33 32 28 27 30 31 29 30 33 37 36 45 44 42 45 46 47 50 48 46 47 48 48 47 43 47 42 41 39 39 26 25 26 26 28
41 43 41 40 38 37 35 35 36 36 35 33 30 28 30 32 31 30 29 34 42 44 46 53 50 50 56 55 56 54 51 48 42 40 44 41 43 35 38 29 26 24 23 23 26
41 37 36 36 35 35 36 36 38 36 35 34 30 28 30 33 35 31 30 30 32 35 44 49 54 48 45 50 53 52 50 45 40 39 42 42 34 32 31 22 23 21 20 23 28
37 38 37 35 36 36 37 38 37 34 34 34 30 28 30 32 34 34 31 31 32 33 33 38 45 48 50 49 53 54 50 41 39 42 42 40 31 28 21 22 21 19 19 23 28
Wind_Direction
356 352 355 354 354 352 348 345 336 323 317 312 297 295 294 292 289 292 283 282 277 270 271 271 263 257 253 257 261 263 263 262 261 262 261 259 259 258 253 252 252 254 255 258 261
345 338 338 340 339 341 337 333 331 326 321 317 309 294 287 286 286 288 285 281 277 274 270 266 260 253 253 259 263 263 263 262 261 259 257 256 253 250 247 247 249 252 255 256 256
335 325 325 324 324 322 323 324 322 320 317 314 310 301 286 281 285 281 280 275 276 276 270 261 255 248 255 260 260 256 254 246 235 234 237 240 244 246 251 254 249 251 255 258 263
334 325 317 316 319 317 317 316 317 312 312 307 305 298 290 280 278 272 269 268 269 272 268 259 255 250 255 252 247 244 242 240 246 255 259 263 266 268 267 263 261 259 260 266 273
328 324 311 310 314 316 316 310 311 308 305 301 295 290 284 278 275 273 263 261 263 264 265 258 252 248 252 247 241 240 240 246 261 269 274 276 278 275 270 266 262 263 270 277 280
326 322 313 308 311 309 310 306 306 306 309 302 291 281 278 274 268 264 261 257 259 262 259 257 251 248 249 245 239 236 241 252 266 276 281 284 283 280 276 271 267 270 273 276 284
330 323 318 314 309 308 307 308 305 303 305 301 287 277 272 269 263 256 255 253 254 258 259 258 250 246 245 241 236 235 243 254 265 275 285 288 287 281 276 278 279 281 286 288 291
325 323 314 312 310 310 311 312 306 307 304 295 278 270 267 263 258 249 248 250 252 253 253 252 246 244 239 236 237 241 248 257 265 273 281 290 293 288 279 279 280 284 285 288 289
315 314 317 319 313 309 310 312 310 311 311 303 279 268 261 256 253 248 246 248 250 252 248 246 240 241 239 240 242 248 256 263 266 274 280 288 292 295 284 280 284 286 286 289 292
314 311 310 317 313 308 308 310 314 315 317 309 293 271 261 253 251 250 247 247 248 251 248 244 245 244 246 244 245 251 261 267 272 274 280 286 287 289 295 288 284 287 288 290 291
315 317 312 313 313 310 308 308 312 316 314 317 311 293 269 258 252 250 248 248 248 248 246 245 249 252 247 249 250 255 261 268 272 278 281 283 283 285 290 290 289 286 284 285 288
310 313 317 317 315 311 308 307 310 311 318 313 307 299 280 264 252 249 246 248 247 247 245 247 252 257 256 254 256 257 260 265 268 274 278 280 280 286 289 290 287 286 285 285 286
313 315 317 316 317 312 310 312 313 315 315 303 301 293 293 265 253 245 244 244 246 245 245 251 254 257 261 260 260 259 260 264 269 274 278 281 284 287 291 290 287 286 286 286 288
310 314 316 315 315 315 309 311 314 316 310 308 301 292 283 274 259 238 242 242 244 243 245 250 254 258 260 262 262 261 261 263 270 274 278 279 286 293 293 292 290 290 289 289 289
309 315 319 316 314 316 309 314 315 310 308 306 306 304 288 276 261 241 233 243 244 245 246 252 254 257 258 259 262 262 264 268 272 274 277 280 286 290 294 294 291 290 288 288 292
310 314 314 317 314 316 311 313 311 308 313 308 305 302 287 272 258 247 236 243 245 247 247 249 254 256 257 258 259 261 264 266 269 271 275 279 282 289 292 294 292 292 288 291 293
308 310 311 315 315 315 311 311 310 312 311 311 303 299 288 266 251 246 239 240 245 241 247 251 252 255 256 256 256 258 260 263 265 268 273 278 281 286 289 292 296 294 292 294 294
304 307 311 317 314 311 307 307 308 310 313 309 306 301 295 268 245 235 232 234 239 239 244 246 252 252 254 254 253 253 254 257 264 268 275 279 283 289 293 294 295 295 294 293 291
300 305 311 313 316 309 304 306 306 308 310 308 308 305 297 273 253 246 246 244 241 240 248 246 246 249 248 247 246 246 250 256 263 268 275 279 284 289 290 294 297 298 293 289 292
296 301 307 311 313 305 302 303 304 308 307 307 306 305 297 281 261 254 253 253 244 241 243 242 242 236 237 239 241 245 252 257 263 271 277 282 289 292 291 299 297 296 292 292 294
295 300 304 308 308 301 298 302 306 307 306 307 305 303 298 285 270 260 253 246 241 239 237 236 241 234 235 237 243 248 254 259 266 271 277 283 290 290 299 298 293 295 289 288 293
293 297 301 302 301 296 296 298 300 303 305 305 303 303 300 288 274 254 248 243 236 237 233 236 238 243 243 244 248 252 256 262 266 273 275 280 285 289 293 290 288 292 287 290 296
293 296 298 298 295 288 289 294 298 299 301 303 305 301 299 291 281 258 247 247 236 234 230 232 236 238 239 243 246 252 258 264 269 273 277 283 284 288 292 281 280 283 286 293 299
291 294 294 290 287 286 289 291 294 295 297 297 298 298 294 292 282 273 255 252 249 240 238 238 244 243 246 249 254 256 258 261 266 270 278 275 282 282 282 277 280 276 285 293 303
292 290 286 284 282 283 286 289 289 290 293 292 291 292 292 290 284 274 264 260 252 250 249 245 248 252 251 252 256 259 261 260 266 267 272 275 272 284 275 268 270 272 281 295 302
284 281 279 280 283 285 288 289 290 291 291 289 287 286 286 287 287 280 275 264 260 257 253 250 252 258 260 256 257 258 258 263 270 271 268 271 277 270 263 262 265 275 288 300 307
273 272 275 278 280 282 284 283 283 285 287 285 283 283 282 284 283 283 280 275 266 262 261 257 254 256 259 255 256 259 262 268 267 267 267 270 270 261 253 255 265 278 292 305 309